PST,Max TemperatureF,Mean TemperatureF,Min TemperatureF,Max Dew PointF,MeanDew PointF,Min DewpointF,Max Humidity, Mean Humidity, Min Humidity, Max Sea Level PressureIn, Mean Sea Level PressureIn, Min Sea Level PressureIn, Max VisibilityMiles, Mean VisibilityMiles, Min VisibilityMiles, Max Wind SpeedMPH, Mean Wind SpeedMPH, Max Gust SpeedMPH,PrecipitationIn, CloudCover, Events, WindDirDegrees
2014-2-1,44,36,28,36,31,27,100,87,70,30.22,30.17,30.11,10,6,0,5,1,,0.00,7,,5
2014-2-2,42,33,23,36,29,18,93,83,61,30.11,30.03,29.99,10,7,0,9,1,,0.00,6,,302
2014-2-3,39,30,21,27,21,16,93,72,45,30.23,30.13,30.03,10,8,0,9,2,,0.00,5,,332
2014-2-4,35,29,23,19,16,10,74,59,44,30.47,30.33,30.23,10,10,10,8,3,,0.00,6,,336
2014-2-5,32,22,12,14,6,0,80,52,27,30.52,30.46,30.37,10,10,10,12,1,,0.00,0,,141
2014-2-6,30,20,10,18,6,1,74,53,29,30.37,30.05,29.82,10,10,8,8,1,,0.00,3,,334
2014-2-7,35,27,17,19,14,9,80,59,41,29.98,29.89,29.80,10,10,10,13,4,,0.00,3,,225
2014-2-8,39,26,14,28,16,9,93,66,38,30.08,29.96,29.87,10,10,5,9,2,,0.00,2,,303
2014-2-9,39,34,28,32,29,27,93,83,75,30.12,30.08,29.98,10,9,3,5,2,,0.00,8,,170
2014-2-10,48,40,33,43,38,30,93,85,76,30.08,30.02,29.98,10,10,6,20,6,30,0.05,8,,174
2014-2-11,51,42,33,41,37,30,100,80,58,30.16,29.98,29.59,10,9,1,24,8,31,0.00,7,,133
2014-2-12,51,48,44,46,39,34,87,71,54,29.92,29.72,29.44,10,10,9,29,15,38,0.01,7,,155
2014-2-13,53,46,37,43,38,34,93,76,50,30.08,29.94,29.72,10,10,8,14,8,,0.02,5,,142
2014-2-14,53,47,41,43,40,34,93,76,62,29.97,29.79,29.58,10,10,9,25,10,36,0.03,8,,173
2014-2-15,48,40,33,43,37,30,93,80,71,29.96,29.61,29.25,10,10,6,29,8,41,0.05,6,,127
2014-2-16,44,40,37,37,35,32,87,77,61,29.96,29.81,29.63,10,10,7,26,14,33,0.15,7,,172
2014-2-17,44,40,35,41,36,34,93,85,76,29.95,29.80,29.71,10,10,6,17,10,23,0.11,7,,150
2014-2-18,46,40,35,43,37,30,87,79,70,29.95,29.77,29.54,10,10,10,33,13,38,0.02,7,,153
2014-2-19,46,40,35,36,34,30,93,80,66,30.14,30.05,29.87,10,10,9,23,6,29,0.00,7,,153
2014-2-20,50,44,37,39,34,27,93,76,54,30.22,30.12,30.02,10,10,5,18,11,26,0.00,6,,274
2014-2-21,42,36,28,36,30,27,93,78,53,30.31,30.27,30.23,10,9,0,8,3,,0.06,6,,356
2014-2-22,37,32,26,34,30,23,93,88,80,30.27,30.18,30.06,10,8,1,8,2,,0.01,7,,61
2014-2-23,39,36,33,36,33,30,93,89,87,30.08,30.01,29.97,10,8,2,8,5,,0.00,8,,24
2014-2-24,39,36,33,37,34,30,93,89,87,30.15,30.09,30.07,10,7,2,8,5,,0.03,8,,336
2014-2-25,51,42,32,39,34,28,93,81,61,30.18,30.12,30.03,10,9,3,10,5,,0.00,3,,311
2014-2-26,57,44,30,39,34,27,100,76,48,30.03,29.89,29.74,10,9,0,9,2,,0.00,1,,342
2014-2-27,50,42,33,39,35,28,93,79,58,29.78,29.72,29.67,10,10,8,8,2,,0.00,6,,206
2014-2-28,55,45,35,43,35,28,93,67,41,29.77,29.63,29.53,10,9,2,16,5,20,0.00,4,,324